This is the latest recevied weather packets stored in our database for station/object W0AKO. If no packets are shown the sender has not sent any weather packets the latest 10 day(s).
| Time | Temp. | Humidity | Pressure | Rain* | Wind** | Luminosity | Snow |
|---|---|---|---|---|---|---|---|
| 1777365229 | 12.22° C | 10% | 1017.2 hPa | 0 mm | - | 0 W/m² | - |
| 1777364924 | 12.22° C | 10% | 1017.3 hPa | 0 mm | - | 0 W/m² | - |
| 1777364619 | 12.22° C | 10% | 1017.2 hPa | 0 mm | - | 0 W/m² | - |
| 1777364316 | 12.78° C | 10% | 1017.5 hPa | 0 mm | - | 0 W/m² | - |
| 1777364013 | 12.22° C | 10% | 1017.1 hPa | 0 mm | - | 0 W/m² | - |
| 1777363709 | 12.78° C | 10% | 1017.3 hPa | 0 mm | - | 0 W/m² | - |
| 1777363405 | 12.78° C | 10% | 1017.2 hPa | 0 mm | - | 0 W/m² | - |
| 1777363103 | 12.22° C | 10% | 1017.2 hPa | 0 mm | - | 0 W/m² | - |
| 1777362800 | 12.22° C | 10% | 1017.5 hPa | 0 mm | - | 0 W/m² | - |
| 1777362497 | 12.22° C | 10% | 1017.2 hPa | 0 mm | - | 0 W/m² | - |
| 1777362194 | 12.22° C | 10% | 1017 hPa | 0 mm | - | 0 W/m² | - |
| 1777361892 | 11.67° C | 10% | 1017.2 hPa | 0 mm | - | 0 W/m² | - |
| 1777361589 | 12.22° C | 10% | 1017.1 hPa | 0 mm | - | 0 W/m² | - |
| 1777361286 | 11.67° C | 10% | 1017.2 hPa | 0 mm | - | 0 W/m² | - |
| 1777360983 | 12.22° C | 10% | 1017.2 hPa | 0 mm | - | 0 W/m² | - |
| 1777360681 | 12.22° C | 10% | 1017.1 hPa | 0 mm | - | 0 W/m² | - |
| 1777360377 | 12.22° C | 10% | 1017 hPa | 0 mm | - | 0 W/m² | - |
| 1777360075 | 12.78° C | 10% | 1016.8 hPa | 0 mm | - | 0 W/m² | - |
| 1777359771 | 12.78° C | 10% | 1016.6 hPa | 0 mm | - | 0 W/m² | - |
| 1777359468 | 13.33° C | 10% | 1016.6 hPa | 0 mm | - | 0 W/m² | - |
| 1777359164 | 13.33° C | 10% | 1016.5 hPa | 0 mm | - | 0 W/m² | - |
| 1777358863 | 13.89° C | 10% | 1016.4 hPa | 0 mm | - | 0 W/m² | - |
| 1777358560 | 13.89° C | 10% | 1016.5 hPa | 0 mm | - | 0 W/m² | - |
| 1777358258 | 13.89° C | 10% | 1016.6 hPa | 0 mm | - | 0 W/m² | - |
| 1777357956 | 13.89° C | 10% | 1016.5 hPa | 0 mm | - | 0 W/m² | - |
* Rain latest hour (hover to see other rain measurements)
** Current wind speed in m/s (hover to see current wind gust speed)